This is the latest recevied weather packets stored in our database for station/object OK1FPA-15. If no packets are shown the sender has not sent any weather packets the latest 10 day(s).
| Time | Temp. | Humidity | Pressure | Rain* | Wind** | Luminosity | Snow |
|---|---|---|---|---|---|---|---|
| 1777640250 | 21.67° C | 31% | 1027.7 hPa | - | - | - | - |
| 1777639650 | 21.11° C | 32% | 1027.8 hPa | - | - | - | - |
| 1777639050 | 21.11° C | 32% | 1027.9 hPa | - | - | - | - |
| 1777638450 | 21.11° C | 32% | 1028.1 hPa | - | - | - | - |
| 1777637850 | 20.56° C | 31% | 1028.2 hPa | - | - | - | - |
| 1777637249 | 20.56° C | 32% | 1028.3 hPa | - | - | - | - |
| 1777636650 | 20.56° C | 31% | 1028.4 hPa | - | - | - | - |
| 1777636053 | 20.56° C | 31% | 1028.5 hPa | - | - | - | - |
| 1777635448 | 20.56° C | 31% | 1028.4 hPa | - | - | - | - |
| 1777634848 | 20° C | 32% | 1028.6 hPa | - | - | - | - |
| 1777634249 | 20° C | 31% | 1028.7 hPa | - | - | - | - |
| 1777633649 | 20° C | 32% | 1028.7 hPa | - | - | - | - |
| 1777633049 | 19.44° C | 32% | 1028.9 hPa | - | - | - | - |
| 1777632448 | 19.44° C | 32% | 1029 hPa | - | - | - | - |
| 1777631848 | 19.44° C | 32% | 1029.2 hPa | - | - | - | - |
| 1777630648 | 19.44° C | 31% | 1029.2 hPa | - | - | - | - |
| 1777630048 | 18.89° C | 32% | 1029.2 hPa | - | - | - | - |
| 1777629449 | 19.44° C | 33% | 1029.3 hPa | - | - | - | - |
| 1777628848 | 18.89° C | 34% | 1029.4 hPa | - | - | - | - |
| 1777628248 | 18.33° C | 36% | 1029.6 hPa | - | - | - | - |
| 1777627648 | 18.33° C | 36% | 1029.8 hPa | - | - | - | - |
| 1777627048 | 18.33° C | 36% | 1029.8 hPa | - | - | - | - |
| 1777626448 | 17.78° C | 36% | 1029.8 hPa | - | - | - | - |
| 1777625848 | 17.78° C | 37% | 1029.9 hPa | - | - | - | - |
| 1777625248 | 17.78° C | 39% | 1029.9 hPa | - | - | - | - |
* Rain since midnight (hover to see other rain measurements)
** Current wind speed in m/s (hover to see current wind gust speed)